EHI
0 0 0 0 0 0 0 0 0 0 0 0 0 0 0 0 0 1 2 2 3 3 2 1 0 0 0 0 0 0 0 0 0 0 0 0 0 0 0 0 0 0 0
0 0 0 0 0 0 0 0 0 0 0 0 0 0 0 0 0 0 1 1 2 3 2 1 0 0 0 0 0 0 0 0 0 0 0 0 0 0 0 0 0 0 0
0 0 0 0 0 0 0 0 0 0 0 0 0 0 0 0 0 0 0 0 1 1 2 1 0 0 0 0 0 0 0 0 0 0 0 0 0 0 0 0 0 0 0
0 0 0 0 0 0 0 0 0 0 0 0 0 0 0 0 0 0 0 0 0 0 1 1 0 0 0 0 0 0 0 0 0 0 0 0 0 0 0 0 0 0 0
0 0 0 0 0 0 0 0 0 0 0 0 0 0 0 0 0 0 0 0 0 0 0 0 0 0 0 0 0 0 0 0 1 0 0 0 0 0 0 0 0 0 0
0 0 0 0 0 0 0 0 0 0 0 0 0 0 0 0 0 0 0 0 0 0 0 0 1 0 0 0 0 0 0 0 0 0 0 0 0 0 0 0 0 0 0
0 0 0 0 0 0 0 0 0 0 0 0 0 0 0 0 0 0 0 0 0 0 0 0 0 0 0 0 0 0 0 0 0 0 0 0 0 0 0 0 0 0 0
0 0 0 0 0 0 0 0 0 0 0 0 0 0 0 0 0 0 0 0 0 0 0 0 0 0 0 0 0 0 0 0 0 0 0 0 0 0 0 0 0 0 0
0 0 0 0 0 0 0 0 0 0 0 0 0 0 0 0 0 0 0 0 0 0 0 0 0 0 0 0 0 0 0 0 0 0 0 0 0 0 0 0 0 0 0
0 0 0 0 0 0 0 0 0 0 0 0 0 0 0 0 0 0 0 0 0 0 0 0 0 0 0 0 0 0 0 0 0 0 0 0 0 0 0 0 0 0 0
0 0 0 0 0 0 0 0 0 0 0 0 0 0 0 0 0 0 0 0 0 0 0 0 0 0 0 0 0 0 0 0 0 0 0 0 0 0 0 0 0 0 0
1 1 0 0 0 0 0 0 0 0 0 0 0 0 0 0 0 0 0 0 0 0 0 0 0 0 0 0 0 0 0 0 0 0 0 0 0 0 0 0 0 0 0
2 1 0 0 0 0 0 0 0 0 1 1 0 0 0 0 0 0 0 0 0 0 0 0 0 0 0 0 0 0 0 0 0 0 0 0 0 0 0 0 0 0 0
1 1 0 0 0 0 0 1 1 1 2 2 1 1 1 0 0 0 0 0 0 0 0 0 0 0 0 0 0 0 0 0 0 0 0 0 0 0 0 0 0 0 0
0 0 1 2 1 1 2 4 4 3 3 3 3 2 2 1 0 0 0 0 0 0 0 0 0 0 0 0 0 0 0 0 0 0 0 0 0 0 0 0 0 0 0
1 1 2 3 3 3 3 5 5 4 3 3 3 3 3 1 1 0 0 0 0 0 0 0 0 0 0 0 0 0 0 0 0 0 0 0 0 0 0 0 0 0 0
3 2 2 3 4 4 4 4 5 4 3 3 3 3 3 3 2 1 1 0 0 0 0 0 0 0 0 0 0 0 0 0 0 0 0 0 0 0 0 0 0 0 0
4 3 3 4 4 3 3 3 4 3 3 3 3 3 3 3 3 3 3 1 1 1 1 0 0 0 0 0 0 0 0 0 0 0 0 0 0 0 0 0 0 0 0
5 5 4 4 3 2 3 3 3 3 3 3 3 3 3 2 3 4 4 3 2 2 2 1 0 0 0 0 0 0 0 0 0 0 0 0 0 0 0 0 0 0 0
8 7 5 4 3 3 3 3 3 3 3 2 2 2 2 2 2 3 3 3 3 3 3 2 1 0 0 0 0 0 0 0 0 0 0 0 0 0 0 0 0 0 0
10 10 8 6 4 3 3 2 2 2 1 1 1 2 2 1 1 1 1 2 2 3 3 4 3 1 1 2 2 0 0 0 0 1 1 0 0 0 0 0 0 0 0
12 13 11 9 7 4 2 1 1 1 1 1 2 2 2 0 0 0 0 1 1 1 2 4 3 2 2 3 3 1 1 1 1 1 1 0 0 0 0 0 0 0 0
15 15 13 12 10 6 1 0 0 0 2 2 2 2 1 0 0 0 0 0 0 0 1 1 1 1 1 1 1 1 2 2 1 1 1 0 0 0 0 0 0 0 0
14 14 13 13 11 5 1 0 0 0 1 1 1 1 1 0 0 0 0 0 0 0 0 0 0 0 0 0 0 1 1 1 1 0 1 1 1 1 0 0 0 0 0
15 13 13 13 10 5 1 0 0 0 0 1 2 3 3 1 0 0 0 0 0 0 0 0 0 0 0 0 0 0 0 0 0 0 2 3 2 1 0 0 0 0 0
18 16 14 13 9 5 1 0 0 0 0 2 4 5 3 1 0 0 0 0 0 0 0 0 0 0 0 0 0 0 0 0 0 0 2 4 3 1 0 0 0 0 0
Wind_Speed
4 4 3 2 3 3 4 3 2 2 2 3 2 2 1 1 2 2 5 7 6 5 6 6 6 6 6 6 6 7 8 8 7 7 7 7 7 7 7 7 7 7 7
4 4 4 3 3 2 2 2 3 3 2 1 2 2 2 2 2 2 3 7 7 6 5 6 6 6 6 6 7 7 7 8 8 8 7 7 7 7 8 7 8 7 7
5 4 4 4 3 2 3 2 3 2 3 3 2 2 2 2 2 2 2 3 6 8 7 6 6 7 7 7 7 8 8 8 8 8 8 8 7 8 7 7 8 8 8
5 4 4 3 3 3 3 3 3 3 3 2 2 2 3 3 3 3 3 4 3 4 8 8 6 6 7 7 8 8 9 8 8 9 9 9 9 8 8 8 8 8 8
6 5 3 2 4 3 3 3 3 2 2 2 3 3 3 3 3 3 2 3 4 3 4 8 7 6 7 7 8 8 9 9 9 9 9 10 10 10 9 9 8 9 9
6 5 4 4 4 3 3 2 3 2 2 2 3 3 2 2 2 2 3 3 3 4 4 4 6 7 7 6 7 8 9 9 9 9 10 10 10 10 10 9 9 9 9
6 5 4 4 4 4 4 5 4 5 3 2 3 4 4 4 2 2 2 2 3 3 3 3 3 3 5 8 6 6 7 9 8 9 9 9 9 9 10 10 10 10 10
6 6 5 5 5 4 4 4 4 3 3 3 3 3 4 5 4 3 3 3 3 3 3 4 3 3 2 3 6 6 5 6 8 8 8 8 8 8 9 10 11 11 11
7 5 6 5 4 5 4 5 5 5 4 4 3 3 3 2 4 4 3 2 2 2 3 3 4 3 4 2 4 6 4 3 5 7 7 7 7 8 8 9 10 11 12
7 7 6 6 5 4 4 6 5 4 4 4 4 2 3 3 2 3 5 4 4 3 2 3 3 4 4 3 3 4 4 3 3 3 4 5 5 6 7 8 9 10 11
7 7 7 6 5 4 4 4 4 5 4 4 3 4 3 3 5 4 2 3 4 4 3 4 3 3 3 3 3 6 6 4 3 3 2 3 3 4 6 7 8 9 10
6 8 7 6 6 5 5 5 5 6 4 3 3 3 4 4 4 4 3 4 4 3 3 2 4 4 4 4 3 8 5 4 3 3 3 3 3 4 5 6 7 8 8
7 8 8 7 6 6 6 5 5 5 5 5 5 4 4 4 3 4 4 3 3 3 4 5 4 4 4 3 4 7 7 6 4 4 4 3 4 5 5 6 7 7 8
7 8 9 8 8 7 7 6 6 6 5 5 6 4 4 4 3 4 4 4 4 5 6 5 4 5 3 4 4 6 6 8 6 5 5 5 5 5 6 6 7 7 8
7 9 9 9 8 8 8 7 6 6 5 6 6 7 6 4 4 4 4 5 6 6 5 5 5 4 4 4 4 6 6 8 7 7 7 7 7 7 7 7 7 8 8
8 9 9 9 9 9 9 8 7 7 7 6 5 5 5 5 4 4 5 5 5 6 6 2 4 4 3 4 6 6 6 8 9 9 9 8 8 8 8 8 8 8 8
9 10 10 9 9 9 9 9 9 8 9 8 8 8 8 7 5 5 5 5 5 6 6 5 4 4 5 7 4 6 7 7 8 14 12 10 10 10 10 10 10 10 10
10 10 10 10 10 10 9 10 10 10 10 9 9 9 9 7 8 7 6 7 6 5 7 7 5 5 7 7 7 7 8 8 8 10 13 12 12 12 12 12 12 12 12
10 10 10 10 10 9 9 10 10 10 10 10 9 9 9 9 9 8 8 8 7 7 7 7 7 5 6 6 7 9 10 7 9 8 12 14 14 14 13 14 14 14 13
10 10 10 10 10 10 10 10 10 10 10 10 10 10 10 10 10 10 9 9 8 8 7 8 8 7 7 7 7 8 8 8 8 8 7 8 11 15 16 16 16 15 15
10 10 10 10 10 9 9 10 10 10 10 10 10 10 10 9 8 8 8 8 9 8 8 8 8 8 8 6 7 7 8 7 7 8 8 8 8 10 12 15 18 17 16
8 9 9 10 9 8 5 7 9 9 9 10 10 9 9 9 9 10 10 9 9 9 10 8 8 8 8 7 6 7 7 8 8 6 6 8 8 9 9 10 10 14 16
7 7 7 7 8 6 4 7 9 9 9 8 9 8 8 7 9 10 11 13 13 13 12 10 11 10 9 7 7 9 8 9 9 7 6 10 9 10 10 9 8 11 13
5 5 5 5 5 3 3 6 7 9 9 9 9 9 9 8 7 8 9 10 12 12 13 13 12 11 9 7 7 9 9 9 10 10 10 11 11 10 10 9 9 13 15
3 4 4 3 3 2 2 3 5 6 7 8 7 7 8 8 4 5 8 10 10 9 9 9 10 10 8 7 7 8 9 9 11 10 8 9 10 10 10 10 9 13 16
3 3 2 2 1 0 2 1 4 4 5 5 5 4 3 4 3 4 7 8 10 9 8 7 9 10 11 11 11 11 10 10 10 10 8 7 9 10 11 10 9 8 9
Wind_Direction
162 150 150 160 171 152 163 175 172 151 181 178 178 166 166 140 121 139 125 144 155 165 172 177 182 186 186 186 182 182 184 180 174 172 175 174 174 174 174 174 172 171 172
158 161 167 172 169 172 151 180 160 173 181 157 168 151 186 162 137 198 154 153 166 176 183 188 191 192 193 196 196 195 194 191 185 184 185 184 185 187 187 187 185 184 185
163 174 169 177 163 156 160 183 171 175 173 170 168 166 172 182 158 172 178 173 169 178 187 192 200 202 201 203 203 203 202 201 196 195 194 194 195 195 198 199 195 194 194
174 186 179 176 161 179 179 175 196 184 175 176 165 177 160 161 174 186 183 186 192 180 177 185 198 205 209 209 210 209 206 205 204 203 203 202 201 203 205 205 204 202 201
180 193 188 159 184 187 188 202 169 204 177 178 172 170 179 173 181 188 182 187 181 198 178 165 183 196 208 210 213 213 211 208 207 209 210 212 210 209 210 210 211 210 209
181 189 181 180 201 190 187 186 158 188 197 201 197 157 186 174 194 164 199 183 183 192 188 168 178 180 191 202 210 214 215 214 212 212 213 217 218 216 214 213 215 217 215
177 189 186 180 206 195 193 185 188 179 195 190 196 183 179 184 179 182 209 207 173 179 177 176 202 184 174 182 193 204 215 217 214 215 217 217 219 220 216 215 218 221 220
182 184 190 193 194 188 192 197 211 219 183 197 234 208 190 175 194 184 193 205 203 189 188 189 176 198 240 179 149 180 205 218 218 217 219 220 220 221 217 219 221 224 224
187 187 190 203 193 209 190 200 203 217 207 191 237 261 243 204 161 166 189 198 206 203 210 182 193 187 211 201 163 164 176 205 217 218 219 219 222 222 219 223 225 226 227
187 188 193 196 203 210 188 205 197 210 219 205 185 249 305 354 274 173 182 177 191 211 220 228 192 183 197 191 131 119 150 170 187 200 218 222 224 223 225 228 232 232 231
192 194 193 194 197 205 200 214 188 221 219 232 212 202 207 217 253 263 206 182 192 191 190 210 218 204 189 198 192 138 149 170 185 198 211 221 226 228 230 234 239 241 239
191 194 196 197 201 199 193 203 207 209 234 242 252 235 229 232 232 242 237 220 211 188 192 210 221 208 210 210 175 130 162 183 194 204 213 226 237 241 240 240 244 247 249
194 190 197 199 201 199 200 205 209 220 215 217 234 240 246 254 266 261 263 246 234 204 195 216 211 215 219 211 158 154 179 187 197 207 217 228 239 245 248 248 248 252 254
200 188 198 201 204 204 204 203 215 210 212 220 230 242 247 241 248 252 258 258 240 225 208 215 201 215 224 223 142 193 186 181 197 211 222 230 236 242 248 249 248 250 252
199 194 201 202 204 206 209 208 220 217 213 222 219 211 233 225 236 244 249 258 265 258 230 190 218 199 217 222 161 225 227 176 195 217 226 233 238 242 246 248 248 247 247
202 198 202 204 206 208 209 215 216 213 218 223 235 233 234 235 228 236 239 244 257 272 276 232 208 206 213 241 185 232 243 172 207 219 228 234 240 242 244 245 246 246 247
200 203 204 206 209 212 212 214 223 211 219 221 221 219 224 242 238 232 231 237 241 249 259 258 231 207 215 254 222 234 241 236 225 204 215 228 236 240 242 242 243 244 247
202 205 207 209 213 214 213 217 222 219 220 223 223 223 225 221 224 243 240 238 240 246 254 258 250 223 215 231 238 247 250 242 254 198 203 221 232 237 239 241 242 243 245
205 205 207 211 215 217 217 221 225 225 226 228 227 226 227 228 227 229 233 238 235 229 237 249 248 241 233 229 231 238 246 251 260 228 203 216 226 233 237 239 240 242 243
205 206 208 214 218 221 223 224 225 229 230 231 230 230 231 229 230 232 231 235 240 242 234 243 248 239 233 226 233 246 243 227 242 255 245 230 221 222 230 234 236 238 239
209 210 213 218 221 224 226 225 227 228 229 231 231 233 236 237 242 240 245 234 231 235 238 237 243 245 239 232 235 246 256 258 246 249 255 249 235 232 226 227 230 233 234
212 213 217 220 221 228 211 213 232 237 232 234 235 234 235 226 228 230 248 258 259 248 249 253 252 251 254 252 254 260 263 262 264 250 250 261 261 259 254 251 226 213 221
206 210 216 221 225 226 188 204 224 244 244 239 237 235 238 228 218 228 224 229 241 247 251 259 264 264 264 258 261 257 257 267 274 281 269 267 266 263 261 259 222 210 220
195 202 212 221 225 218 183 211 221 233 244 243 240 239 239 241 234 239 242 237 238 233 231 234 249 260 265 273 262 262 271 264 262 257 255 264 268 268 269 268 230 215 224
187 197 202 213 218 202 157 200 222 232 238 243 245 246 247 244 238 243 250 251 250 249 236 233 243 255 268 271 265 263 259 260 264 263 251 258 270 274 272 268 258 225 224
169 175 158 158 173 111 98 175 230 244 247 247 241 235 233 254 251 232 249 254 255 257 262 247 236 242 248 244 229 239 254 259 266 272 268 261 268 274 276 271 270 263 244